Location: Gellin
(53.4498°N, 14.3207°E)
Time: 01:48:30
(UTC+00:00)

Nadezhda 3 Rocket - Pass Details

Date: 03 March 2021
Orbit: 957 x 999 km, 82.9° (Epoch: 11 April)

Event Time Altitude Azimuth Distance (km) Brightness Sun altitude
Rises 17:25:05 0° 349° (N) 3,724 7.2 -6.8°
Reaches altitude 10° 17:27:38 10° 352° (N) 2,775 6.5 -7.2°
Maximum altitude 17:34:00 70° 77° (ENE) 1,065 4.0 -8.1°
Drops below altitude 10° 17:40:21 10° 160° (SSE) 2,764 6.2 -9.1°
Sets 17:42:53 0° 163° (SSE) 3,709 6.8 -9.5°
